BAW146 LTAC-LTAI

Flight info

Callsign BAW146
Flight time 0h 39m
Altitude 35000
Route HALIL1D/21R HALIL UW77 HISAR
Aircraft B77W/H-SDE1E2E3FGHIJ2J3J4J5M1RWXY/LB1D1

Departure

Time 2026-05-06 15:13
Airport Esenboğa International Airport (LTAC)

Arrival

Time 2026-05-06 15:52
Airport Antalya International Airport (LTAI)
Time Latitude Longitude Altitude Speed Heading
2026-05-06 14:47 40.11381 32.98853 3118 ft 0 kts 127°
2026-05-06 14:59 40.11388 32.98841 3117 ft 2 kts 130°
2026-05-06 15:00 40.11399 32.98825 3117 ft 2 kts 134°
2026-05-06 15:00 40.11411 32.98810 3117 ft 2 kts 143°
2026-05-06 15:00 40.11425 32.98798 3117 ft 2 kts 160°
2026-05-06 15:00 40.11441 32.98795 3117 ft 2 kts 193°
2026-05-06 15:01 40.11455 32.98802 3117 ft 1 kts 214°
2026-05-06 15:01 40.11459 32.98805 3117 ft 0 kts 215°
2026-05-06 15:03 40.11453 32.98800 3117 ft 4 kts 216°
2026-05-06 15:03 40.11404 32.98754 3117 ft 6 kts 215°
2026-05-06 15:04 40.11385 32.98737 3116 ft 4 kts 215°
2026-05-06 15:04 40.11330 32.98685 3116 ft 16 kts 215°
2026-05-06 15:04 40.11280 32.98578 3115 ft 18 kts 288°
2026-05-06 15:04 40.11344 32.98544 3114 ft 10 kts 38°
2026-05-06 15:05 40.11403 32.98614 3115 ft 13 kts 44°
2026-05-06 15:05 40.11481 32.98693 3116 ft 16 kts 35°
2026-05-06 15:05 40.11577 32.98782 3117 ft 18 kts 36°
2026-05-06 15:05 40.11685 32.98887 3118 ft 20 kts 37°
2026-05-06 15:06 40.11797 32.98995 3119 ft 20 kts 36°
2026-05-06 15:06 40.11910 32.99104 3120 ft 20 kts 36°
2026-05-06 15:06 40.12024 32.99213 3121 ft 20 kts 36°
2026-05-06 15:06 40.12137 32.99322 3122 ft 20 kts 36°
2026-05-06 15:07 40.12251 32.99429 3123 ft 20 kts 36°
2026-05-06 15:07 40.12365 32.99537 3119 ft 20 kts 36°
2026-05-06 15:07 40.12479 32.99645 3122 ft 20 kts 36°
2026-05-06 15:07 40.12593 32.99753 3122 ft 20 kts 36°
2026-05-06 15:08 40.12706 32.99862 3123 ft 20 kts 37°
2026-05-06 15:08 40.12818 32.99968 3124 ft 20 kts 36°
2026-05-06 15:08 40.12931 33.00076 3126 ft 20 kts 36°
2026-05-06 15:08 40.13044 33.00184 3127 ft 20 kts 36°
2026-05-06 15:09 40.13157 33.00292 3129 ft 20 kts 36°
2026-05-06 15:09 40.13270 33.00399 3130 ft 20 kts 36°
2026-05-06 15:09 40.13383 33.00506 3131 ft 20 kts 36°
2026-05-06 15:09 40.13496 33.00613 3131 ft 20 kts 36°
2026-05-06 15:10 40.13609 33.00720 3133 ft 20 kts 36°
2026-05-06 15:10 40.13722 33.00827 3137 ft 20 kts 36°
2026-05-06 15:10 40.13834 33.00935 3138 ft 20 kts 36°
2026-05-06 15:10 40.13947 33.01041 3139 ft 20 kts 32°
2026-05-06 15:11 40.14075 33.01039 3140 ft 20 kts 319°
2026-05-06 15:11 40.14140 33.00882 3140 ft 20 kts 306°
2026-05-06 15:11 40.14219 33.00742 3138 ft 19 kts 301°
2026-05-06 15:11 40.14158 33.00632 3133 ft 17 kts 214°
2026-05-06 15:12 40.14108 33.00584 3133 ft 21 kts 217°
2026-05-06 15:12 40.13804 33.00294 3132 ft 93 kts 216°
2026-05-06 15:12 40.13080 32.99610 3126 ft 161 kts 216°
2026-05-06 15:12 40.12054 32.98645 3372 ft 192 kts 218°
2026-05-06 15:13 40.10912 32.97573 3810 ft 215 kts 218°
2026-05-06 15:13 40.09674 32.96396 4517 ft 226 kts 217°
2026-05-06 15:13 40.08324 32.95115 4917 ft 254 kts 217°
2026-05-06 15:13 40.06875 32.93747 5724 ft 260 kts 217°
2026-05-06 15:14 40.05419 32.92376 6696 ft 262 kts 217°
2026-05-06 15:14 40.03933 32.90978 7608 ft 265 kts 217°
2026-05-06 15:14 40.02377 32.89646 8430 ft 269 kts 204°
2026-05-06 15:14 40.00529 32.89185 9217 ft 278 kts 178°
2026-05-06 15:15 39.98626 32.89758 9982 ft 286 kts 153°
2026-05-06 15:15 39.96926 32.91196 10513 ft 300 kts 145°
2026-05-06 15:15 39.95143 32.92855 10729 ft 330 kts 145°
2026-05-06 15:15 39.93182 32.94653 10974 ft 358 kts 145°
2026-05-06 15:16 39.91077 32.96529 11498 ft 371 kts 149°
2026-05-06 15:16 39.88643 32.97751 12141 ft 383 kts 171°
2026-05-06 15:16 39.85983 32.97783 13190 ft 385 kts 185°
2026-05-06 15:16 39.83313 32.97491 14115 ft 394 kts 185°
2026-05-06 15:17 39.80573 32.97172 15005 ft 395 kts 189°
2026-05-06 15:17 39.77959 32.96026 15852 ft 401 kts 210°
2026-05-06 15:17 39.75748 32.93795 16671 ft 403 kts 227°
2026-05-06 15:17 39.73802 32.91107 17472 ft 412 kts 228°
2026-05-06 15:18 39.71830 32.88380 18427 ft 417 kts 228°
2026-05-06 15:18 39.69813 32.85639 19273 ft 422 kts 228°
2026-05-06 15:18 39.67757 32.82887 20127 ft 427 kts 228°
2026-05-06 15:18 39.65673 32.80114 20929 ft 433 kts 228°
2026-05-06 15:19 39.63557 32.77302 21706 ft 438 kts 229°
2026-05-06 15:19 39.61410 32.74449 22487 ft 444 kts 229°
2026-05-06 15:19 39.59239 32.71565 23257 ft 449 kts 229°
2026-05-06 15:19 39.57047 32.68656 23961 ft 454 kts 229°
2026-05-06 15:20 39.54732 32.65836 24619 ft 460 kts 224°
2026-05-06 15:20 39.52158 32.63329 25303 ft 466 kts 217°
2026-05-06 15:20 39.49383 32.61110 25964 ft 470 kts 215°
2026-05-06 15:20 39.46564 32.58909 26577 ft 474 kts 215°
2026-05-06 15:21 39.43725 32.56698 27169 ft 478 kts 215°
2026-05-06 15:21 39.40866 32.54464 27725 ft 482 kts 215°
2026-05-06 15:21 39.37998 32.52212 28303 ft 484 kts 215°
2026-05-06 15:21 39.35146 32.49964 28847 ft 487 kts 215°
2026-05-06 15:22 39.32251 32.47677 29515 ft 487 kts 216°
2026-05-06 15:22 39.29366 32.45398 30125 ft 486 kts 216°
2026-05-06 15:22 39.26493 32.43128 30069 ft 483 kts 216°
2026-05-06 15:23 39.20756 32.38601 30096 ft 484 kts 215°
2026-05-06 15:23 39.17857 32.36313 30274 ft 492 kts 215°
2026-05-06 15:23 39.14923 32.34000 30581 ft 496 kts 215°
2026-05-06 15:23 39.11971 32.31678 30870 ft 497 kts 215°
2026-05-06 15:24 39.09052 32.29387 31133 ft 497 kts 215°
2026-05-06 15:24 39.06099 32.27072 31371 ft 496 kts 215°
2026-05-06 15:24 39.03146 32.24760 31622 ft 496 kts 215°
2026-05-06 15:24 39.00200 32.22455 31875 ft 495 kts 215°
2026-05-06 15:25 38.97263 32.20158 32107 ft 494 kts 215°
2026-05-06 15:25 38.94329 32.17866 32469 ft 491 kts 215°
2026-05-06 15:25 38.91425 32.15600 32933 ft 487 kts 215°
2026-05-06 15:25 38.88533 32.13345 33396 ft 483 kts 215°
2026-05-06 15:26 38.85655 32.11101 33574 ft 488 kts 215°
2026-05-06 15:26 38.82725 32.08816 33773 ft 490 kts 215°
2026-05-06 15:26 38.79855 32.06582 34109 ft 489 kts 215°
2026-05-06 15:26 38.76946 32.04322 34400 ft 488 kts 215°
2026-05-06 15:27 38.74045 32.02070 34700 ft 487 kts 215°
2026-05-06 15:27 38.71218 31.99701 34979 ft 483 kts 221°
2026-05-06 15:27 38.68679 31.96863 34784 ft 489 kts 229°
2026-05-06 15:27 38.66471 31.93542 34187 ft 487 kts 238°
2026-05-06 15:28 38.64730 31.89883 33628 ft 476 kts 247°
2026-05-06 15:28 38.63436 31.86039 33073 ft 467 kts 252°
2026-05-06 15:28 38.62360 31.82149 32528 ft 463 kts 255°
2026-05-06 15:28 38.61357 31.78210 31982 ft 467 kts 255°
2026-05-06 15:29 38.60710 31.75581 31589 ft 470 kts 255°
2026-05-06 15:29 38.59467 31.71731 31487 ft 471 kts 241°
2026-05-06 15:29 38.57315 31.68517 31519 ft 484 kts 223°
2026-05-06 15:29 38.54475 31.66103 31228 ft 492 kts 210°
2026-05-06 15:30 38.51367 31.64319 30425 ft 488 kts 206°
2026-05-06 15:30 38.48280 31.62574 29953 ft 481 kts 207°
2026-05-06 15:30 38.45233 31.60813 29596 ft 478 kts 207°
2026-05-06 15:30 38.42218 31.59043 28749 ft 476 kts 208°
2026-05-06 15:31 38.39253 31.57284 27947 ft 472 kts 208°
2026-05-06 15:31 38.36329 31.55545 27148 ft 455 kts 208°
2026-05-06 15:31 38.33490 31.53856 26382 ft 449 kts 208°
2026-05-06 15:32 38.27830 31.50482 24935 ft 448 kts 207°
2026-05-06 15:32 38.25032 31.48819 24217 ft 438 kts 207°
2026-05-06 15:32 38.22313 31.47208 23452 ft 424 kts 207°
2026-05-06 15:32 38.19665 31.45640 22667 ft 419 kts 207°
2026-05-06 15:33 38.17012 31.44069 21897 ft 422 kts 207°
2026-05-06 15:33 38.14341 31.42486 21144 ft 424 kts 207°
2026-05-06 15:33 38.11694 31.40921 20431 ft 425 kts 207°
2026-05-06 15:33 38.09029 31.39348 19890 ft 420 kts 207°
2026-05-06 15:34 38.06388 31.37790 19392 ft 416 kts 207°
2026-05-06 15:34 38.03818 31.36278 18853 ft 393 kts 207°
2026-05-06 15:34 38.01410 31.34866 18435 ft 368 kts 207°
2026-05-06 15:34 37.99110 31.33515 18183 ft 361 kts 207°
2026-05-06 15:35 37.96842 31.32178 17916 ft 358 kts 207°
2026-05-06 15:35 37.94614 31.30865 17613 ft 356 kts 207°
2026-05-06 15:35 37.92363 31.29540 17290 ft 355 kts 208°
2026-05-06 15:35 37.90137 31.28232 17169 ft 350 kts 207°
2026-05-06 15:36 37.87928 31.26934 17109 ft 351 kts 208°
2026-05-06 15:36 37.85704 31.25629 17106 ft 354 kts 208°
2026-05-06 15:36 37.83457 31.24311 17104 ft 357 kts 208°
2026-05-06 15:36 37.81196 31.22986 17105 ft 358 kts 208°
2026-05-06 15:37 37.78929 31.21660 17093 ft 359 kts 208°
2026-05-06 15:37 37.76665 31.20338 17101 ft 358 kts 208°
2026-05-06 15:37 37.74425 31.19029 17091 ft 359 kts 208°
2026-05-06 15:37 37.72156 31.17705 17100 ft 358 kts 208°
2026-05-06 15:38 37.69890 31.16382 17096 ft 359 kts 208°
2026-05-06 15:38 37.67623 31.15060 17093 ft 359 kts 208°
2026-05-06 15:38 37.65358 31.13740 17093 ft 359 kts 208°
2026-05-06 15:38 37.63079 31.12412 16875 ft 363 kts 208°
2026-05-06 15:39 37.60778 31.11072 16509 ft 364 kts 208°
2026-05-06 15:39 37.58485 31.09739 16151 ft 361 kts 208°
2026-05-06 15:39 37.56212 31.08419 15739 ft 359 kts 208°
2026-05-06 15:39 37.53949 31.07104 15334 ft 357 kts 208°
2026-05-06 15:40 37.51697 31.05796 14933 ft 355 kts 208°
2026-05-06 15:40 37.49456 31.04496 14550 ft 353 kts 208°
2026-05-06 15:40 37.47280 31.03210 14160 ft 345 kts 212°
2026-05-06 15:40 37.45454 31.01353 13746 ft 334 kts 236°
2026-05-06 15:41 37.44370 30.98830 13347 ft 325 kts 255°
2026-05-06 15:41 37.43920 30.96079 12921 ft 320 kts 270°
2026-05-06 15:41 37.43829 30.93324 12271 ft 310 kts 260°
2026-05-06 15:41 37.42879 30.90951 11618 ft 305 kts 228°
2026-05-06 15:42 37.41097 30.89600 10959 ft 301 kts 194°
2026-05-06 15:42 37.39040 30.89579 10331 ft 294 kts 174°
2026-05-06 15:42 37.37057 30.89444 9658 ft 283 kts 200°
2026-05-06 15:42 37.35250 30.88574 9101 ft 273 kts 203°
2026-05-06 15:43 37.33483 30.87769 8534 ft 267 kts 201°
2026-05-06 15:43 37.31758 30.87025 8145 ft 255 kts 200°
2026-05-06 15:43 37.30080 30.86365 7648 ft 252 kts 195°
2026-05-06 15:43 37.28336 30.85896 7160 ft 254 kts 192°
2026-05-06 15:44 37.26675 30.85494 6853 ft 238 kts 192°
2026-05-06 15:44 37.25078 30.85104 6547 ft 230 kts 193°
2026-05-06 15:44 37.23579 30.84729 6296 ft 210 kts 193°
2026-05-06 15:44 37.22185 30.84373 5979 ft 202 kts 193°
2026-05-06 15:45 37.20809 30.84016 5589 ft 203 kts 193°
2026-05-06 15:45 37.19456 30.83667 5348 ft 194 kts 192°
2026-05-06 15:45 37.18162 30.83325 5094 ft 186 kts 192°
2026-05-06 15:45 37.16933 30.83053 5009 ft 176 kts 189°
2026-05-06 15:46 37.15685 30.82834 4915 ft 189 kts 187°
2026-05-06 15:46 37.14367 30.82632 4648 ft 190 kts 187°
2026-05-06 15:46 37.13069 30.82446 4380 ft 185 kts 186°
2026-05-06 15:46 37.11827 30.82272 4141 ft 178 kts 186°
2026-05-06 15:47 37.10613 30.82103 3913 ft 174 kts 186°
2026-05-06 15:47 37.09396 30.81935 3699 ft 178 kts 185°
2026-05-06 15:47 37.08154 30.81765 3480 ft 179 kts 185°
2026-05-06 15:47 37.06922 30.81593 3230 ft 178 kts 185°
2026-05-06 15:48 37.05710 30.81426 2978 ft 171 kts 185°
2026-05-06 15:48 37.04549 30.81267 2768 ft 166 kts 186°
2026-05-06 15:48 37.03424 30.81111 2555 ft 158 kts 186°
2026-05-06 15:48 37.02365 30.80964 2343 ft 148 kts 186°
2026-05-06 15:49 37.01314 30.80820 2144 ft 155 kts 186°
2026-05-06 15:49 37.00261 30.80674 1924 ft 148 kts 186°
2026-05-06 15:49 36.99253 30.80536 1740 ft 144 kts 186°
2026-05-06 15:49 36.98275 30.80402 1549 ft 142 kts 185°
2026-05-06 15:50 36.97284 30.80262 1351 ft 144 kts 185°
2026-05-06 15:50 36.96304 30.80128 1160 ft 139 kts 185°
2026-05-06 15:50 36.95337 30.79996 968 ft 142 kts 185°
2026-05-06 15:50 36.94334 30.79858 782 ft 146 kts 183°
2026-05-06 15:51 36.93338 30.79720 579 ft 140 kts 184°
2026-05-06 15:51 36.92379 30.79588 381 ft 138 kts 185°
2026-05-06 15:51 36.91422 30.79457 217 ft 139 kts 185°
2026-05-06 15:51 36.90532 30.79339 200 ft 115 kts 186°
2026-05-06 15:52 36.89854 30.79243 189 ft 75 kts 186°
2026-05-06 15:52 36.89564 30.79243 194 ft 33 kts 156°
2026-05-06 15:52 36.89508 30.79273 198 ft 0 kts 157°
2026-05-06 15:53 36.89495 30.79280 199 ft 6 kts 157°
2026-05-06 15:53 36.89453 30.79302 204 ft 0 kts 157°
2026-05-06 15:53 36.89450 30.79304 204 ft 3 kts 156°
2026-05-06 15:54 36.89418 30.79321 199 ft 0 kts 155°
2026-05-06 15:54 36.89412 30.79328 194 ft 5 kts 139°
2026-05-06 15:54 36.89421 30.79389 204 ft 8 kts 25°
2026-05-06 15:54 36.89484 30.79408 196 ft 11 kts
2026-05-06 15:55 36.89578 30.79422 192 ft 16 kts
2026-05-06 15:55 36.89652 30.79433 191 ft 0 kts
2026-05-06 15:55 36.89666 30.79455 203 ft 9 kts 75°
2026-05-06 15:55 36.89657 30.79573 187 ft 14 kts 96°
2026-05-06 15:56 36.89656 30.79677 187 ft 12 kts 66°
2026-05-06 15:56 36.89732 30.79693 200 ft 12 kts 355°
2026-05-06 15:56 36.89748 30.79719 203 ft 8 kts 93°